• En España
  • Lista de países
  • Para 7 días
  • Temperatura del agua
  • Mapa Satelital
  • El tiempo en el mapa
  • Informadores
  • user-avatar
    Iniciar sesión

    Tiempo cada hora Satif

    Hoy, 23 Septiembre, Sábado

    Tiempo Temperatura Precipitaciones Viento Presión Humedad
    00:00 +23°C° 0 mm 2 mps 676 mmHg 49%
    01:00 +21°C° 0,3 mm 2 mps 676 mmHg 49%
    02:00 +21°C° 0,3 mm 3 mps 675 mmHg 50%
    03:00 +21°C° 0,3 mm 4 mps 675 mmHg 50%
    04:00 +20°C° 0,9 mm 4 mps 675 mmHg 53%
    05:00 +19°C° 0,9 mm 4 mps 675 mmHg 55%
    06:00 +18°C° 0,9 mm 3 mps 675 mmHg 58%
    07:00 +19°C° 0,3 mm 3 mps 675 mmHg 53%
    08:00 +20°C° 0,3 mm 3 mps 676 mmHg 48%
    09:00 +21°C° 0,3 mm 2 mps 676 mmHg 44%
    10:00 +24°C° 0 mm 3 mps 677 mmHg 39%
    11:00 +26°C° 0 mm 3 mps 677 mmHg 34%
    12:00 +27°C° 0 mm 4 mps 677 mmHg 29%
    13:00 +28°C° 0 mm 4 mps 676 mmHg 28%
    14:00 +28°C° 0 mm 4 mps 676 mmHg 28%
    15:00 +28°C° 0 mm 5 mps 676 mmHg 28%
    16:00 +27°C° 0,1 mm 5 mps 675 mmHg 30%
    17:00 +26°C° 0,1 mm 4 mps 675 mmHg 33%
    18:00 +25°C° 0,1 mm 4 mps 675 mmHg 35%
    19:00 +24°C° 0,1 mm 3 mps 675 mmHg 37%
    20:00 +24°C° 0,1 mm 3 mps 675 mmHg 39%
    21:00 +23°C° 0,1 mm 2 mps 675 mmHg 41%
    22:00 +23°C° 0 mm 2 mps 675 mmHg 44%
    23:00 +21°C° 0 mm 2 mps 675 mmHg 46%

    Mañana, 24 Septiembre, Domingo

    Tiempo Temperatura Precipitaciones Viento Presión Humedad
    00:00 +21°C° 0 mm 2 mps 675 mmHg 48%
    01:00 +20°C° 0,1 mm 2 mps 675 mmHg 51%
    02:00 +20°C° 0,1 mm 2 mps 675 mmHg 55%
    03:00 +19°C° 0,1 mm 2 mps 674 mmHg 59%
    04:00 +19°C° 0,1 mm 2 mps 674 mmHg 62%
    05:00 +19°C° 0,1 mm 1 mps 674 mmHg 66%
    06:00 +19°C° 0,1 mm 1 mps 674 mmHg 69%
    07:00 +20°C° 0,1 mm 1 mps 675 mmHg 64%
    08:00 +21°C° 0,1 mm 1 mps 676 mmHg 59%
    09:00 +23°C° 0,1 mm 2 mps 676 mmHg 54%
    10:00 +23°C° 0 mm 2 mps 676 mmHg 51%
    11:00 +24°C° 0 mm 2 mps 677 mmHg 48%
    12:00 +25°C° 0 mm 3 mps 677 mmHg 46%
    13:00 +25°C° 0 mm 3 mps 677 mmHg 45%
    14:00 +25°C° 0 mm 3 mps 676 mmHg 45%
    15:00 +25°C° 0 mm 3 mps 676 mmHg 45%
    16:00 +24°C° 0 mm 3 mps 676 mmHg 50%
    17:00 +22°C° 0 mm 3 mps 676 mmHg 55%
    18:00 +21°C° 0 mm 3 mps 676 mmHg 60%
    19:00 +21°C° 0 mm 2 mps 676 mmHg 64%
    20:00 +20°C° 0 mm 2 mps 676 mmHg 69%
    21:00 +20°C° 0 mm 2 mps 676 mmHg 73%
    22:00 +20°C° 0 mm 1 mps 676 mmHg 75%
    23:00 +20°C° 0 mm 1 mps 675 mmHg 76%

    Pasado mañana, 25 Septiembre, Lunes

    Tiempo Temperatura Precipitaciones Viento Presión Humedad
    00:00 +19°C° 0 mm 1 mps 675 mmHg 78%
    01:00 +19°C° 0 mm 1 mps 675 mmHg 79%
    02:00 +19°C° 0 mm 1 mps 674 mmHg 80%
    03:00 +18°C° 0 mm 1 mps 674 mmHg 81%
    04:00 +16°C° 0 mm 0 mps 674 mmHg 81%
    05:00 +16°C° 0 mm 0 mps 674 mmHg 81%
    06:00 +16°C° 0 mm 0 mps 674 mmHg 80%
    07:00 +18°C° 0 mm 0 mps 675 mmHg 71%
    08:00 +21°C° 0 mm 1 mps 675 mmHg 62%
    09:00 +22°C° 0 mm 1 mps 676 mmHg 52%
    10:00 +23°C° 0 mm 1 mps 676 mmHg 45%
    11:00 +24°C° 0 mm 1 mps 676 mmHg 38%
    12:00 +25°C° 0 mm 2 mps 676 mmHg 31%
    13:00 +26°C° 0 mm 2 mps 676 mmHg 30%
    14:00 +26°C° 0 mm 2 mps 675 mmHg 29%
    15:00 +26°C° 0 mm 2 mps 675 mmHg 29%
    16:00 +25°C° 0 mm 2 mps 675 mmHg 33%
    17:00 +24°C° 0 mm 2 mps 675 mmHg 37%
    18:00 +22°C° 0 mm 3 mps 675 mmHg 41%
    19:00 +23°C° 0 mm 2 mps 675 mmHg 44%
    20:00 +21°C° 0 mm 2 mps 675 mmHg 48%
    21:00 +21°C° 0 mm 1 mps 675 mmHg 52%
    22:00 +21°C° 0 mm 1 mps 675 mmHg 53%
    23:00 +20°C° 0 mm 1 mps 674 mmHg 55%

    26 Septiembre, Martes

    Tiempo Temperatura Precipitaciones Viento Presión Humedad
    00:00 +20°C° 0 mm 1 mps 674 mmHg 57%
    01:00 +19°C° 0 mm 1 mps 674 mmHg 57%
    02:00 +19°C° 0 mm 1 mps 673 mmHg 58%
    03:00 +16°C° 0 mm 0 mps 673 mmHg 58%
    04:00 +16°C° 0 mm 0 mps 673 mmHg 58%
    05:00 +16°C° 0 mm 0 mps 673 mmHg 58%
    06:00 +16°C° 0 mm 0 mps 673 mmHg 58%
    07:00 +18°C° 0 mm 0 mps 674 mmHg 50%
    08:00 +22°C° 0 mm 1 mps 674 mmHg 42%
    09:00 +24°C° 0 mm 1 mps 675 mmHg 35%
    10:00 +24°C° 0 mm 1 mps 675 mmHg 31%
    11:00 +25°C° 0 mm 2 mps 675 mmHg 28%
    12:00 +26°C° 0 mm 2 mps 675 mmHg 24%
    13:00 +26°C° 0 mm 2 mps 675 mmHg 24%
    14:00 +27°C° 0 mm 2 mps 674 mmHg 24%
    15:00 +27°C° 0 mm 2 mps 674 mmHg 24%
    16:00 +26°C° 0 mm 2 mps 674 mmHg 27%
    17:00 +25°C° 0 mm 2 mps 674 mmHg 31%
    18:00 +24°C° 0 mm 2 mps 674 mmHg 34%
    19:00 +23°C° 0 mm 2 mps 674 mmHg 37%
    20:00 +22°C° 0 mm 1 mps 674 mmHg 39%
    21:00 +21°C° 0 mm 1 mps 674 mmHg 42%
    22:00 +21°C° 0 mm 1 mps 674 mmHg 43%
    23:00 +20°C° 0 mm 1 mps 674 mmHg 44%

    27 Septiembre, Miércoles

    Tiempo Temperatura Precipitaciones Viento Presión Humedad
    00:00 +20°C° 0 mm 1 mps 674 mmHg 45%
    01:00 +20°C° 0 mm 1 mps 674 mmHg 46%
    02:00 +17°C° 0 mm 0 mps 674 mmHg 46%
    03:00 +17°C° 0 mm 0 mps 673 mmHg 47%
    04:00 +17°C° 0 mm 0 mps 674 mmHg 48%
    05:00 +19°C° 0 mm 1 mps 674 mmHg 48%
    06:00 +19°C° 0 mm 1 mps 674 mmHg 49%
    07:00 +20°C° 0 mm 1 mps 675 mmHg 45%
    08:00 +21°C° 0 mm 1 mps 675 mmHg 41%
    09:00 +23°C° 0 mm 1 mps 676 mmHg 37%
    10:00 +24°C° 0 mm 1 mps 676 mmHg 35%
    11:00 +25°C° 0 mm 2 mps 676 mmHg 33%
    12:00 +25°C° 0 mm 2 mps 676 mmHg 31%
    13:00 +25°C° 0 mm 3 mps 676 mmHg 32%
    14:00 +25°C° 0 mm 3 mps 676 mmHg 34%
    15:00 +25°C° 0 mm 4 mps 676 mmHg 35%
    16:00 +23°C° 0 mm 4 mps 676 mmHg 43%
    17:00 +22°C° 0 mm 4 mps 676 mmHg 50%
    18:00 +20°C° 0 mm 4 mps 676 mmHg 57%
    19:00 +19°C° 0 mm 3 mps 676 mmHg 62%
    20:00 +19°C° 0 mm 3 mps 676 mmHg 67%
    21:00 +18°C° 0 mm 2 mps 676 mmHg 72%
    22:00 +17°C° 0 mm 2 mps 676 mmHg 74%
    23:00 +17°C° 0 mm 2 mps 676 mmHg 77%

    28 Septiembre, Jueves

    Tiempo Temperatura Precipitaciones Viento Presión Humedad
    00:00 +16°C° 0 mm 2 mps 676 mmHg 79%
    01:00 +16°C° 0 mm 2 mps 676 mmHg 81%
    02:00 +15°C° 0 mm 2 mps 676 mmHg 83%
    03:00 +15°C° 0 mm 1 mps 676 mmHg 85%
    04:00 +15°C° 0 mm 1 mps 676 mmHg 86%
    05:00 +15°C° 0 mm 1 mps 676 mmHg 87%
    06:00 +14°C° 0 mm 1 mps 676 mmHg 88%
    07:00 +16°C° 0 mm 1 mps 676 mmHg 77%
    08:00 +17°C° 0 mm 2 mps 677 mmHg 66%
    09:00 +18°C° 0 mm 2 mps 678 mmHg 56%
    10:00 +19°C° 0 mm 2 mps 678 mmHg 50%
    11:00 +20°C° 0 mm 2 mps 678 mmHg 44%
    12:00 +21°C° 0 mm 2 mps 678 mmHg 39%
    13:00 +21°C° 0 mm 3 mps 678 mmHg 39%
    14:00 +22°C° 0 mm 3 mps 678 mmHg 39%
    15:00 +22°C° 0 mm 3 mps 677 mmHg 40%
    16:00 +21°C° 0 mm 3 mps 677 mmHg 46%
    17:00 +20°C° 0 mm 3 mps 677 mmHg 52%
    18:00 +19°C° 0 mm 3 mps 677 mmHg 58%
    19:00 +18°C° 0 mm 3 mps 677 mmHg 63%
    20:00 +18°C° 0 mm 2 mps 677 mmHg 69%
    21:00 +17°C° 0 mm 2 mps 678 mmHg 74%
    22:00 +17°C° 0 mm 2 mps 677 mmHg 76%
    23:00 +16°C° 0 mm 1 mps 677 mmHg 79%
    Mostrar más